Weather History for Port Hope, MI

Change the Weather History Date:

Tuesday, April 17, 2012

  Actual Average Record
Temperature  
Mean Temperature 38 °F -  
Max Temperature 42 °F 49 °F 80 °F (2002)
Min Temperature 35 °F 35 °F 30 °F (2011)
Degree Days  
Heating Degree Days 27    
Moisture  
Dew Point 27 °F    
Average Humidity 66    
Maximum Humidity 79    
Minimum Humidity 57    
Precipitation  
Precipitation 0.00 in - - ()
Sea Level Pressure  
Sea Level Pressure 30.31 in    
Wind  
Wind Speed 10 mph (NNW)    
Max Wind Speed 14 mph    
Max Gust Speed 23 mph    
Averages and records for this station are not official NWS values.
T = Trace of Precipitation, MM = Missing Value Source: NWS Daily Summary

Daily Weather History Graph

Daily Weather History Graph

Search for Another Location

Airport:

Trip Planner

Search our weather history database for the weather conditions in past years. The results will help you decide how hot, cold, wet, or windy it might be!

Date:

Astronomy

Apr. 17, 2012 Rise Set
Actual Time 6:43 AM EDT 8:18 PM EDT
Civil Twilight 6:13 AM EDT 8:48 PM EDT
Nautical Twilight 5:36 AM EDT 9:25 PM EDT
Astronomical Twilight 4:57 AM EDT 10:04 PM EDT
Moon 4:47 AM EDT (4/17) 5:04 PM EDT (4/17)
Length of Visible Light 14h 35m
Length of Day
13h 34m
Waning Crescent, 12% of the Moon is Illuminated
Apr 17
Waning Crescent
Apr 21
New
Apr 29
First Quarter
May 5
Full
May 12
Last Quarter

Hourly Weather History & Observations

Time (EDT) Temp. Windchill Dew Point Humidity Pressure Visibility Wind Dir Wind Speed Gust Speed Precip Events Conditions
12:51 AM 39.9 °F 32.1 °F 30.9 °F 70% 30.07 in - WNW 13.8 mph 21.9 mph N/A   Unknown
1:51 AM 39.0 °F 32.8 °F 28.9 °F 67% 30.11 in - WNW 9.2 mph 19.6 mph N/A   Unknown
2:51 AM 37.9 °F 30.0 °F 28.0 °F 68% 30.14 in - WNW 12.7 mph 21.9 mph N/A   Unknown
3:51 AM 37.0 °F 29.3 °F 28.0 °F 70% 30.17 in - WNW 11.5 mph 21.9 mph N/A   Unknown
4:51 AM 37.0 °F 29.8 °F 27.0 °F 67% 30.19 in - WNW 10.4 mph 17.3 mph N/A   Unknown
5:51 AM 36.0 °F 28.5 °F 25.0 °F 64% 30.21 in - WNW 10.4 mph 23.0 mph N/A   Unknown
6:51 AM 36.0 °F 29.0 °F 25.0 °F 64% 30.24 in - WNW 9.2 mph 18.4 mph N/A   Unknown
7:51 AM 35.1 °F 27.9 °F 24.1 °F 64% 30.28 in - WNW 9.2 mph 18.4 mph N/A   Unknown
8:51 AM 35.1 °F 27.4 °F 24.1 °F 64% 30.32 in - WNW 10.4 mph 20.7 mph N/A   Unknown
9:51 AM 37.0 °F 29.3 °F 24.1 °F 59% 30.35 in - WNW 11.5 mph 21.9 mph N/A   Unknown
10:51 AM 37.9 °F 30.9 °F 26.1 °F 62% 30.37 in - NW 10.4 mph 18.4 mph N/A   Unknown
11:51 AM 37.9 °F 32.7 °F 24.1 °F 57% 30.39 in - NW 6.9 mph - N/A   Unknown
12:51 PM 39.9 °F 37.8 °F 26.1 °F 58% 30.39 in - Variable 3.5 mph - N/A   Unknown
1:51 PM 41.0 °F 39.0 °F 27.0 °F 57% 30.39 in - Variable 3.5 mph - N/A   Unknown
2:51 PM 41.0 °F 39.0 °F 27.0 °F 57% 30.40 in - Variable 3.5 mph - N/A   Unknown
3:51 PM 41.0 °F 37.1 °F 27.0 °F 57% 30.38 in - North 5.8 mph - N/A   Unknown
4:51 PM 39.9 °F 33.4 °F 28.0 °F 63% 30.39 in - NNE 10.4 mph - N/A   Unknown
5:51 PM 39.0 °F 31.8 °F 30.0 °F 70% 30.39 in - NE 11.5 mph - N/A   Unknown
6:51 PM 37.9 °F 30.9 °F 28.9 °F 70% 30.40 in - ESE 10.4 mph - N/A   Unknown
7:51 PM 37.0 °F 29.8 °F 28.0 °F 70% 30.39 in - East 10.4 mph - N/A   Unknown
8:51 PM 37.0 °F 28.9 °F 30.0 °F 76% 30.39 in - ESE 12.7 mph - N/A   Unknown
9:51 PM 37.0 °F 29.3 °F 30.0 °F 76% 30.38 in - East 11.5 mph - N/A   Unknown
10:51 PM 37.0 °F 29.8 °F 30.0 °F 76% 30.36 in - East 10.4 mph - N/A   Unknown
11:51 PM 37.0 °F 29.3 °F 30.9 °F 79% 30.36 in - East 11.5 mph - N/A   Unknown